Weather History for KGHW - December, 2013

Change the Weather History Date:

Tuesday, December 17, 2013

  Actual Average Record
Temperature  
Mean Temperature 16 °F -  
Max Temperature 30 °F 23 °F 50 °F (1962)
Min Temperature 3 °F 5 °F -26 °F (1953)
Degree Days  
Heating Degree Days 48    
Moisture  
Dew Point 13 °F    
Average Humidity 83    
Maximum Humidity 93    
Minimum Humidity 68    
Precipitation  
Precipitation 0.00 in - - ()
Sea Level Pressure  
Sea Level Pressure 29.99 in    
Wind  
Wind Speed 19 mph (West)    
Max Wind Speed 31 mph    
Max Gust Speed 40 mph    
Visibility 9 miles    
Events Snow    
Averages and records for this station are not official NWS values.
T = Trace of Precipitation, MM = Missing Value Source: NWS Daily Summary

Daily Weather History Graph

Daily Weather History Graph

Search for Another Location

Airport or City:

Trip Planner

Search our weather history database for the weather conditions in past years. The results will help you decide how hot, cold, wet, or windy it might be!

Date:

Astronomy

Dec. 17, 2013 Rise Set
Actual Time 7:56 AM CST 4:38 PM CST
Civil Twilight 7:22 AM CST 5:12 PM CST
Nautical Twilight 6:44 AM CST 5:50 PM CST
Astronomical Twilight 6:08 AM CST 6:26 PM CST
Moon 5:22 PM CST (12/17) 7:50 AM CST (12/17)
Length of Visible Light 9h 50m
Length of Day
8h 41m
Full, 100% of the Moon is Illuminated
Dec 17
Full
Dec 25
Last Quarter
Jan 1
New
Jan 7
First Quarter
Jan 15
Full

Hourly Weather History & Observations

Time (CST) Temp. Windchill Dew Point Humidity Pressure Visibility Wind Dir Wind Speed Gust Speed Precip Events Conditions
12:13 AM 30.2 °F 17.4 °F 26.6 °F 86% 29.87 in 10.0 mi West 20.7 mph 26.5 mph N/A   Scattered Clouds
12:33 AM 30.2 °F 16.8 °F 26.6 °F 86% 29.85 in 10.0 mi West 23.0 mph 28.8 mph N/A   Scattered Clouds
12:53 AM 30.2 °F 17.4 °F 26.6 °F 86% 29.86 in 10.0 mi West 20.7 mph 29.9 mph N/A   Scattered Clouds
1:13 AM 30.2 °F 17.8 °F 26.6 °F 86% 29.86 in 10.0 mi West 19.6 mph 28.8 mph N/A   Mostly Cloudy
1:33 AM 30.2 °F 17.1 °F 26.6 °F 86% 29.86 in 10.0 mi West 21.9 mph 31.1 mph N/A   Overcast
1:53 AM 30.2 °F 16.8 °F 26.6 °F 86% 29.87 in 7.0 mi West 23.0 mph 28.8 mph N/A   Overcast
2:12 AM 30.2 °F 15.9 °F 26.6 °F 86% 29.88 in 7.0 mi West 26.5 mph 31.1 mph N/A   Mostly Cloudy
2:33 AM 28.4 °F 14.7 °F 26.6 °F 93% 29.89 in 7.0 mi West 21.9 mph - N/A   Mostly Cloudy
2:53 AM 28.4 °F 15.1 °F 26.6 °F 93% 29.89 in 10.0 mi WNW 20.7 mph 28.8 mph N/A   Overcast
3:13 AM 28.4 °F 16.2 °F 24.8 °F 86% 29.90 in 10.0 mi West 17.3 mph 24.2 mph N/A   Mostly Cloudy
3:33 AM 26.6 °F 13.8 °F 24.8 °F 93% 29.90 in 10.0 mi West 17.3 mph - N/A   Scattered Clouds
3:53 AM 26.6 °F 13.4 °F 23.0 °F 86% 29.90 in 10.0 mi West 18.4 mph 25.3 mph N/A   Clear
4:13 AM 26.6 °F 12.7 °F 21.2 °F 80% 29.90 in 10.0 mi West 20.7 mph 27.6 mph N/A   Clear
4:33 AM 26.6 °F 13.1 °F 21.2 °F 80% 29.91 in 10.0 mi West 19.6 mph 25.3 mph N/A   Clear
4:53 AM 24.8 °F 11.5 °F 21.2 °F 86% 29.91 in 10.0 mi West 17.3 mph 24.2 mph N/A   Clear
5:13 AM 24.8 °F 11.1 °F 19.4 °F 80% 29.91 in 10.0 mi West 18.4 mph 24.2 mph N/A   Clear
5:34 AM 23.0 °F 8.3 °F 19.4 °F 86% 29.92 in 10.0 mi West 19.6 mph 24.2 mph N/A   Clear
5:53 AM 23.0 °F 8.3 °F 19.4 °F 86% 29.93 in 10.0 mi West 19.6 mph 24.2 mph N/A   Scattered Clouds
6:13 AM 23.0 °F 8.3 °F 19.4 °F 86% 29.92 in 10.0 mi West 19.6 mph 25.3 mph N/A   Scattered Clouds
6:34 AM 23.0 °F 7.6 °F 19.4 °F 86% 29.93 in 10.0 mi West 21.9 mph 28.8 mph N/A   Scattered Clouds
6:53 AM 23.0 °F 8.0 °F 17.6 °F 80% 29.93 in 10.0 mi West 20.7 mph - N/A   Clear
7:14 AM 23.0 °F 8.7 °F 17.6 °F 80% 29.93 in 10.0 mi West 18.4 mph - N/A   Clear
7:33 AM 21.2 °F 6.4 °F 17.6 °F 86% 29.94 in 10.0 mi West 18.4 mph 25.3 mph N/A   Clear
7:53 AM 21.2 °F 5.2 °F 17.6 °F 86% 29.95 in 10.0 mi West 21.9 mph 28.8 mph N/A   Clear
8:14 AM 21.2 °F 5.6 °F 17.6 °F 86% 29.96 in 7.0 mi West 20.7 mph 34.5 mph N/A   Scattered Clouds
8:33 AM 21.2 °F 4.9 °F 15.8 °F 80% 29.97 in 10.0 mi WNW 23.0 mph 28.8 mph N/A   Scattered Clouds
8:53 AM 21.2 °F 4.9 °F 17.6 °F 86% 29.97 in 7.0 mi WNW 23.0 mph 31.1 mph N/A   Scattered Clouds
9:14 AM 21.2 °F 4.9 °F 17.6 °F 86% 29.98 in 7.0 mi WNW 23.0 mph 31.1 mph N/A   Scattered Clouds
9:33 AM 21.2 °F 3.5 °F 17.6 °F 86% 29.98 in 3.0 mi WNW 27.6 mph 31.1 mph N/A   Haze
9:53 AM 21.2 °F 3.9 °F 17.6 °F 86% 29.99 in 3.0 mi WNW 26.5 mph 34.5 mph N/A   Haze
10:13 AM 21.2 °F 4.5 °F 17.6 °F 86% 30.01 in 4.0 mi WNW 24.2 mph 32.2 mph N/A Snow Light Snow
10:33 AM 21.2 °F 5.2 °F 17.6 °F 86% 30.02 in 5.0 mi WNW 21.9 mph 31.1 mph N/A Snow Light Snow
10:53 AM 21.2 °F 2.7 °F 15.8 °F 80% 30.02 in 4.0 mi WNW 31.1 mph 34.5 mph N/A   Haze
11:13 AM 19.4 °F 0.2 °F 14.0 °F 80% 30.02 in 1.5 mi WNW 31.1 mph 40.3 mph N/A   Haze
11:33 AM 19.4 °F 0.5 °F 12.2 °F 74% 30.03 in 2.5 mi WNW 29.9 mph 35.7 mph N/A   Haze
11:54 AM 19.4 °F 0.8 °F 12.2 °F 74% 30.04 in 4.0 mi WNW 28.8 mph 35.7 mph N/A   Haze
12:13 PM 19.4 °F 1.1 °F 10.4 °F 68% 30.04 in 5.0 mi NW 27.6 mph 32.2 mph N/A   Haze
12:33 PM 19.4 °F 1.8 °F 12.2 °F 74% 30.03 in 7.0 mi WNW 25.3 mph 31.1 mph N/A   Clear
12:54 PM 17.6 °F -1.0 °F 10.4 °F 73% 30.03 in 4.0 mi WNW 26.5 mph 39.1 mph N/A   Haze
1:13 PM 17.6 °F -1.3 °F 10.4 °F 73% 30.03 in 4.0 mi WNW 27.6 mph 35.7 mph N/A   Haze
1:33 PM 17.6 °F 0.1 °F 10.4 °F 73% 30.03 in 7.0 mi NW 23.0 mph 31.1 mph N/A   Clear
1:53 PM 17.6 °F 0.5 °F 10.4 °F 73% 30.04 in 5.0 mi WNW 21.9 mph 28.8 mph N/A   Haze
2:13 PM 17.6 °F 2.2 °F 10.4 °F 73% 30.04 in 10.0 mi WNW 17.3 mph - N/A   Clear
2:33 PM 17.6 °F 1.3 °F 10.4 °F 73% 30.03 in 10.0 mi WNW 19.6 mph 24.2 mph N/A   Clear
2:53 PM 17.6 °F 0.9 °F 10.4 °F 73% 30.04 in 10.0 mi WNW 20.7 mph - N/A   Clear
3:13 PM 17.6 °F 2.2 °F 10.4 °F 73% 30.04 in 10.0 mi WNW 17.3 mph - N/A   Clear
3:34 PM 17.6 °F 5.7 °F 10.4 °F 73% 30.04 in 10.0 mi WNW 10.4 mph - N/A   Clear
3:53 PM 15.8 °F 2.7 °F 8.6 °F 73% 30.05 in 10.0 mi WNW 11.5 mph - N/A   Clear
4:13 PM 15.8 °F 3.4 °F 8.6 °F 73% 30.05 in 10.0 mi West 10.4 mph - N/A   Clear
4:33 PM 14.0 °F 2.9 °F 8.6 °F 79% 30.05 in 10.0 mi West 8.1 mph - N/A   Clear
4:53 PM 12.2 °F -1.0 °F 8.6 °F 85% 30.06 in 10.0 mi West 10.4 mph - N/A   Clear
5:13 PM 12.2 °F -0.2 °F 6.8 °F 79% 30.06 in 10.0 mi West 9.2 mph - N/A   Clear
5:34 PM 10.4 °F -0.4 °F 6.8 °F 85% 30.06 in 10.0 mi West 6.9 mph - N/A   Clear
5:53 PM 8.6 °F -3.7 °F 5.0 °F 85% 30.06 in 10.0 mi West 8.1 mph - N/A   Clear
6:13 PM 8.6 °F -2.6 °F 6.8 °F 92% 30.06 in 10.0 mi West 6.9 mph - N/A   Clear
6:34 PM 8.6 °F -1.3 °F 5.0 °F 85% 30.06 in 10.0 mi West 5.8 mph - N/A   Clear
6:53 PM 8.6 °F -3.7 °F 6.8 °F 92% 30.06 in 10.0 mi West 8.1 mph - N/A   Clear
7:13 PM 8.6 °F -2.6 °F 6.8 °F 92% 30.06 in 10.0 mi West 6.9 mph - N/A   Clear
7:34 PM 6.8 °F -3.5 °F 3.2 °F 85% 30.06 in 10.0 mi West 5.8 mph - N/A   Clear
7:53 PM 6.8 °F -0.1 °F 3.2 °F 85% 30.06 in 10.0 mi WSW 3.5 mph - N/A   Clear
8:13 PM 6.8 °F -3.5 °F 3.2 °F 85% 30.05 in 10.0 mi WSW 5.8 mph - N/A   Clear
8:33 PM 3.2 °F -6.2 °F 1.4 °F 92% 30.05 in 10.0 mi SW 4.6 mph - N/A   Clear
8:53 PM 5.0 °F - 3.2 °F 92% 30.05 in 10.0 mi Calm Calm - N/A   Clear
9:14 PM 5.0 °F - 3.2 °F 92% 30.03 in 10.0 mi Calm Calm - N/A   Clear
9:33 PM 5.0 °F - 3.2 °F 92% 30.03 in 10.0 mi Calm Calm - N/A   Clear
9:53 PM 3.2 °F -6.2 °F 1.4 °F 92% 30.03 in 10.0 mi SSW 4.6 mph - N/A   Clear
10:14 PM 3.2 °F -4.2 °F 1.4 °F 92% 30.02 in 10.0 mi South 3.5 mph - N/A   Clear
10:33 PM 3.2 °F -7.8 °F 1.4 °F 92% 30.01 in 10.0 mi South 5.8 mph - N/A   Clear
10:53 PM 5.0 °F -5.6 °F 1.4 °F 85% 30.00 in 10.0 mi SSE 5.8 mph - N/A   Clear
11:13 PM 6.8 °F -3.5 °F 3.2 °F 85% 29.99 in 10.0 mi SSE 5.8 mph - N/A   Clear
11:33 PM 5.0 °F -4.1 °F 1.4 °F 85% 29.99 in 10.0 mi SSE 4.6 mph - N/A   Clear
11:54 PM 5.0 °F -5.6 °F 1.4 °F 85% 29.98 in 10.0 mi SSE 5.8 mph - N/A   Clear